Change the Weather History Date:

Saturday, February 1, 2014

  Actual Average Record
Temperature  
Mean Temperature 35 °F 30 °F  
Max Temperature 41 °F 38 °F 62 °F (2012)
Min Temperature 28 °F 24 °F 0 °F (1961)
Degree Days  
Heating Degree Days 30 35  
Month to date heating degree days 30 35  
Since 1 July heating degree days 3074 3011  
Cooling Degree Days 0 0  
Month to date cooling degree days 0 0  
Year to date cooling degree days 0 0  
Moisture  
Dew Point 27 °F    
Average Humidity 71    
Maximum Humidity 92    
Minimum Humidity 50    
Precipitation  
Precipitation 0.00 in 0.09 in 1.79 in (2008)
Month to date precipitation 0.00 0.09  
Year to date precipitation 2.78 3.19  
Snow  
Snow 0.00 in 0.30 in 4.40 in (1957)
Month to date snowfall 0.0 0.3  
Since 1 July snowfall 24.3 13.8  
Snow Depth 1.00 in    
Sea Level Pressure  
Sea Level Pressure 30.24 in    
Wind  
Wind Speed 1 mph (ENE)    
Max Wind Speed 7 mph    
Max Gust Speed 8 mph    
Visibility 9 miles    
Events      
T = Trace of Precipitation, MM = Missing Value Source: NWS Daily Summary

Daily Weather History Graph

Daily Weather History Graph

Search for Another Location

Airport or City:

Trip Planner

Search our weather history database for the weather conditions in past years. The results will help you decide how hot, cold, wet, or windy it might be!

Date:

Astronomy

Feb. 01, 2014 Rise Set
Actual Time 7:03 AM EST 5:09 PM EST
Civil Twilight 6:34 AM EST 5:38 PM EST
Nautical Twilight 6:01 AM EST 6:11 PM EST
Astronomical Twilight 5:29 AM EST 6:43 PM EST
Moon 7:49 AM EST (2/1) 7:43 PM EST (2/1)
Length of Visible Light 11h 04m
Length of Day
10h 05m
Waxing Crescent, 5% of the Moon is Illuminated
Feb 1
Waxing Crescent
Feb 6
First Quarter
Feb 14
Full
Feb 22
Last Quarter
Mar 1
New

Hourly Weather History & Observations

Time (EST) Temp. Windchill Dew Point Humidity Pressure Visibility Wind Dir Wind Speed Gust Speed Precip Events Conditions
12:52 AM 30.9 °F - 25.0 °F 79% 30.24 in 10.0 mi Calm Calm - N/A   Partly Cloudy
1:52 AM 32.0 °F - 27.0 °F 82% 30.25 in 10.0 mi Calm Calm - N/A   Clear
2:52 AM 33.1 °F - 28.0 °F 82% 30.26 in 10.0 mi Calm Calm - N/A   Clear
3:52 AM 32.0 °F - 28.0 °F 85% 30.26 in 10.0 mi Calm Calm - N/A   Clear
4:52 AM 30.9 °F - 27.0 °F 85% 30.29 in 10.0 mi Calm Calm - N/A   Clear
5:52 AM 30.9 °F - 27.0 °F 85% 30.30 in 10.0 mi Calm Calm - N/A   Clear
6:52 AM 30.0 °F - 26.1 °F 85% 30.32 in 10.0 mi Calm Calm - N/A   Clear
7:52 AM 30.9 °F - 26.1 °F 82% 30.35 in 9.0 mi Calm Calm - N/A   Clear
8:52 AM 34.0 °F - 27.0 °F 75% 30.35 in 9.0 mi Calm Calm - N/A   Clear
9:52 AM 39.0 °F - 25.0 °F 57% 30.34 in 10.0 mi Calm Calm - N/A   Clear
10:52 AM 36.0 °F 32.1 °F 24.1 °F 62% 30.33 in 10.0 mi East 4.6 mph - N/A   Clear
11:52 AM 39.0 °F 36.8 °F 25.0 °F 57% 30.31 in 10.0 mi ENE 3.5 mph - N/A   Clear
12:52 PM 39.9 °F - 23.0 °F 51% 30.29 in 10.0 mi Calm Calm - N/A   Clear
1:52 PM 39.0 °F 35.7 °F 23.0 °F 53% 30.26 in 10.0 mi East 4.6 mph - N/A   Clear
2:52 PM 39.0 °F 34.8 °F 24.1 °F 55% 30.25 in 10.0 mi East 5.8 mph - N/A   Clear
3:52 PM 37.0 °F 32.4 °F 28.0 °F 70% 30.23 in 10.0 mi East 5.8 mph - N/A   Clear
4:52 PM 35.1 °F 32.2 °F 30.0 °F 82% 30.20 in 9.0 mi East 3.5 mph - N/A   Clear
5:52 PM 34.0 °F - 30.0 °F 85% 30.21 in 9.0 mi Calm Calm - N/A   Clear
6:52 PM 34.0 °F - 28.9 °F 82% 30.19 in 10.0 mi Calm Calm - N/A   Clear
7:52 PM 33.1 °F - 28.9 °F 85% 30.17 in 9.0 mi Calm Calm - N/A   Clear
8:52 PM 33.1 °F 30.0 °F 28.0 °F 82% 30.12 in 7.0 mi NE 3.5 mph - N/A   Clear
9:52 PM 32.0 °F - 30.0 °F 92% 30.10 in 6.0 mi Calm Calm - N/A   Clear
10:52 PM 30.9 °F 27.5 °F 28.0 °F 89% 30.08 in 6.0 mi NNW 3.5 mph - N/A   Partly Cloudy
11:04 PM 32.0 °F - 30.2 °F 93% 30.07 in 6.0 mi Calm Calm - N/A   Mostly Cloudy
11:52 PM 33.1 °F - 32.0 °F 96% 30.04 in 5.0 mi Calm Calm - N/A   Mostly Cloudy